Location: St. Louis
(38.6270°N, 90.1994°W)
Time: 20:16:00
(UTC-05:00)

deb Delta - Pass Details

Date: 08 July 2022
Orbit: 1084 x 1202 km, 99.8° (Epoch: 13 August)

Event Time Altitude Azimuth Distance (km) Brightness Sun altitude
Exits shadow 03:54:29 12° 264° (W) 2,948 ? -17.3°
Maximum altitude 03:55:19 13° 271° (W) 2,931 ? -17.2°
Drops below altitude 10° 03:58:12 10° 296° (WNW) 3,128 ? -16.8°
Sets 04:02:52 0° 323° (NW) 4,080 ? -16.2°
